MAS1326 WMKK-WMKN

Flight info

Callsign MAS1326
Flight time 0h 37m
Altitude 25000
Route PIBOS1D PIBOS R208 GUNBO GUNBO1E
Aircraft B738/M-SDE2E3FGHIRWXY/LB1

Departure

Time 2026-05-01 08:08
Airport Kuala Lumpur International Airport (WMKK)

Arrival

Time 2026-05-01 08:45
Airport Sultan Mahmud Airport (WMKN)
Time Latitude Longitude Altitude Speed Heading
2026-05-01 07:27 2.75359 101.70786 72 ft 0 kts 326°
2026-05-01 07:50 2.75354 101.70790 72 ft 4 kts 329°
2026-05-01 07:50 2.75304 101.70807 65 ft 4 kts 345°
2026-05-01 07:50 2.75279 101.70807 66 ft 4 kts 31°
2026-05-01 07:51 2.75265 101.70795 64 ft 0 kts 56°
2026-05-01 07:56 2.75276 101.70811 69 ft 8 kts 56°
2026-05-01 07:56 2.75389 101.70981 71 ft 16 kts 56°
2026-05-01 07:57 2.75449 101.71071 68 ft 15 kts 56°
2026-05-01 07:57 2.75529 101.71221 70 ft 10 kts 27°
2026-05-01 07:58 2.75613 101.71318 69 ft 10 kts 57°
2026-05-01 07:58 2.75651 101.71415 69 ft 9 kts 111°
2026-05-01 07:59 2.75539 101.71506 70 ft 9 kts 148°
2026-05-01 07:59 2.75457 101.71561 64 ft 9 kts 146°
2026-05-01 08:00 2.75094 101.71805 66 ft 18 kts 147°
2026-05-01 08:01 2.75016 101.71945 68 ft 0 kts 56°
2026-05-01 08:02 2.75015 101.71945 68 ft 0 kts 56°
2026-05-01 08:05 2.75017 101.71947 68 ft 3 kts 56°
2026-05-01 08:05 2.75057 101.72005 68 ft 17 kts 51°
2026-05-01 08:05 2.75176 101.71979 69 ft 8 kts 325°
2026-05-01 08:06 2.75179 101.71977 68 ft 0 kts 326°
2026-05-01 08:07 2.75441 101.71802 71 ft 85 kts 326°
2026-05-01 08:08 2.76141 101.71333 67 ft 154 kts 326°
2026-05-01 08:08 2.78189 101.69970 1389 ft 180 kts 324°
2026-05-01 08:09 2.80512 101.68687 2664 ft 217 kts 339°
2026-05-01 08:09 2.82034 101.68178 2952 ft 243 kts 342°
2026-05-01 08:09 2.83660 101.67601 3496 ft 250 kts 341°
2026-05-01 08:10 2.87006 101.66390 4693 ft 269 kts 342°
2026-05-01 08:10 2.90659 101.65172 6335 ft 277 kts 354°
2026-05-01 08:11 2.94198 101.66395 8050 ft 279 kts 33°
2026-05-01 08:11 2.97618 101.68404 9733 ft 288 kts 32°
2026-05-01 08:12 3.01192 101.70482 10772 ft 319 kts 32°
2026-05-01 08:12 3.03105 101.71595 11417 ft 325 kts 32°
2026-05-01 08:12 3.07088 101.73906 12921 ft 334 kts 32°
2026-05-01 08:13 3.09081 101.75063 13666 ft 337 kts 32°
2026-05-01 08:13 3.11124 101.76250 14312 ft 341 kts 32°
2026-05-01 08:13 3.15300 101.78676 15645 ft 348 kts 32°
2026-05-01 08:14 3.17280 101.80084 16209 ft 352 kts 48°
2026-05-01 08:14 3.18653 101.82095 16889 ft 351 kts 60°
2026-05-01 08:14 3.19967 101.84156 17622 ft 352 kts 57°
2026-05-01 08:14 3.21330 101.86146 18376 ft 350 kts 56°
2026-05-01 08:15 3.22707 101.88146 19085 ft 348 kts 57°
2026-05-01 08:15 3.25431 101.92144 20414 ft 348 kts 57°
2026-05-01 08:15 3.26786 101.94145 20743 ft 346 kts 57°
2026-05-01 08:16 3.28190 101.96109 20843 ft 349 kts 54°
2026-05-01 08:16 3.29663 101.98046 20862 ft 349 kts 53°
2026-05-01 08:16 3.31133 101.99974 20835 ft 347 kts 54°
2026-05-01 08:16 3.32574 102.01885 20850 ft 343 kts 54°
2026-05-01 08:17 3.33847 102.03583 20838 ft 342 kts 54°
2026-05-01 08:17 3.35344 102.05430 20823 ft 342 kts 44°
2026-05-01 08:17 3.37341 102.06728 20869 ft 346 kts 29°
2026-05-01 08:17 3.39471 102.07889 20849 ft 352 kts 32°
2026-05-01 08:18 3.41580 102.09132 20863 ft 351 kts 32°
2026-05-01 08:18 3.45814 102.11553 20840 ft 350 kts 30°
2026-05-01 08:19 3.50143 102.13757 20835 ft 349 kts 28°
2026-05-01 08:19 3.52305 102.14844 20841 ft 348 kts 28°
2026-05-01 08:19 3.54472 102.15939 20836 ft 348 kts 28°
2026-05-01 08:19 3.56631 102.17034 20848 ft 348 kts 29°
2026-05-01 08:20 3.58796 102.18136 20847 ft 349 kts 29°
2026-05-01 08:20 3.60957 102.19239 20824 ft 350 kts 29°
2026-05-01 08:20 3.63125 102.20347 20838 ft 350 kts 29°
2026-05-01 08:20 3.65299 102.21460 20817 ft 351 kts 29°
2026-05-01 08:21 3.67462 102.22568 20830 ft 351 kts 29°
2026-05-01 08:21 3.69639 102.23683 20842 ft 352 kts 29°
2026-05-01 08:21 3.71819 102.24799 20828 ft 352 kts 29°
2026-05-01 08:21 3.74001 102.25918 20827 ft 352 kts 29°
2026-05-01 08:22 3.76183 102.27036 20820 ft 352 kts 29°
2026-05-01 08:22 3.78363 102.28153 20834 ft 351 kts 29°
2026-05-01 08:22 3.80538 102.29268 20818 ft 351 kts 29°
2026-05-01 08:22 3.82713 102.30383 20818 ft 351 kts 29°
2026-05-01 08:23 3.84885 102.31496 20832 ft 350 kts 29°
2026-05-01 08:23 3.87051 102.32606 20820 ft 350 kts 29°
2026-05-01 08:23 3.89226 102.33722 20822 ft 350 kts 29°
2026-05-01 08:23 3.91389 102.34831 20831 ft 350 kts 29°
2026-05-01 08:24 3.93550 102.35939 20827 ft 350 kts 29°
2026-05-01 08:24 3.95722 102.37053 20822 ft 350 kts 29°
2026-05-01 08:24 3.97887 102.38163 20822 ft 349 kts 29°
2026-05-01 08:24 4.00043 102.39269 20830 ft 349 kts 29°
2026-05-01 08:25 4.02206 102.40378 20817 ft 349 kts 29°
2026-05-01 08:25 4.04366 102.41486 20817 ft 349 kts 29°
2026-05-01 08:25 4.06532 102.42593 20840 ft 349 kts 29°
2026-05-01 08:25 4.08693 102.43700 20821 ft 349 kts 29°
2026-05-01 08:26 4.10854 102.44810 20836 ft 349 kts 29°
2026-05-01 08:26 4.13005 102.45914 20817 ft 346 kts 29°
2026-05-01 08:26 4.15132 102.47005 20737 ft 338 kts 29°
2026-05-01 08:26 4.17219 102.48075 20515 ft 336 kts 29°
2026-05-01 08:27 4.19298 102.49142 20196 ft 335 kts 29°
2026-05-01 08:27 4.21360 102.50202 19889 ft 333 kts 29°
2026-05-01 08:27 4.23417 102.51259 19558 ft 331 kts 29°
2026-05-01 08:27 4.25462 102.52309 19212 ft 330 kts 29°
2026-05-01 08:28 4.27501 102.53356 18873 ft 329 kts 29°
2026-05-01 08:28 4.29542 102.54403 18518 ft 328 kts 30°
2026-05-01 08:28 4.31570 102.55444 18191 ft 328 kts 29°
2026-05-01 08:28 4.33603 102.56488 17799 ft 328 kts 30°
2026-05-01 08:29 4.35626 102.57527 17455 ft 326 kts 29°
2026-05-01 08:29 4.37632 102.58557 17094 ft 324 kts 29°
2026-05-01 08:29 4.39630 102.59582 16759 ft 321 kts 29°
2026-05-01 08:29 4.41584 102.60586 16429 ft 319 kts 29°
2026-05-01 08:30 4.43584 102.61613 16090 ft 318 kts 29°
2026-05-01 08:30 4.45546 102.62621 15765 ft 316 kts 29°
2026-05-01 08:30 4.47474 102.63611 15444 ft 315 kts 29°
2026-05-01 08:30 4.49420 102.64611 15117 ft 314 kts 29°
2026-05-01 08:31 4.51358 102.65606 14788 ft 312 kts 29°
2026-05-01 08:31 4.53278 102.66593 14468 ft 311 kts 29°
2026-05-01 08:31 4.55201 102.67581 14124 ft 311 kts 29°
2026-05-01 08:31 4.57127 102.68571 13794 ft 311 kts 29°
2026-05-01 08:32 4.59047 102.69557 13465 ft 309 kts 29°
2026-05-01 08:32 4.60962 102.70534 13098 ft 308 kts 28°
2026-05-01 08:32 4.62884 102.71485 12751 ft 307 kts 28°
2026-05-01 08:32 4.64795 102.72420 12433 ft 305 kts 28°
2026-05-01 08:33 4.66698 102.73352 12104 ft 303 kts 28°
2026-05-01 08:33 4.68586 102.74278 11782 ft 301 kts 28°
2026-05-01 08:33 4.70462 102.75200 11517 ft 298 kts 28°
2026-05-01 08:33 4.72306 102.76107 11277 ft 294 kts 28°
2026-05-01 08:34 4.74135 102.77008 10980 ft 293 kts 28°
2026-05-01 08:34 4.75964 102.77907 10686 ft 291 kts 29°
2026-05-01 08:34 4.77778 102.78802 10377 ft 290 kts 29°
2026-05-01 08:34 4.79585 102.79691 10143 ft 286 kts 28°
2026-05-01 08:35 4.81346 102.80559 9938 ft 281 kts 28°
2026-05-01 08:35 4.83104 102.81426 9640 ft 281 kts 28°
2026-05-01 08:35 4.84850 102.82286 9346 ft 280 kts 28°
2026-05-01 08:35 4.86591 102.83139 9025 ft 280 kts 26°
2026-05-01 08:36 4.88448 102.83778 8696 ft 282 kts 15°
2026-05-01 08:36 4.90357 102.84213 8395 ft 281 kts 15°
2026-05-01 08:36 4.92254 102.84662 8078 ft 279 kts 15°
2026-05-01 08:36 4.94142 102.85121 7793 ft 279 kts 16°
2026-05-01 08:37 4.96023 102.85587 7480 ft 278 kts 15°
2026-05-01 08:37 4.97898 102.86055 7160 ft 276 kts 16°
2026-05-01 08:37 4.99750 102.86528 6862 ft 277 kts 15°
2026-05-01 08:37 5.01609 102.87008 6600 ft 279 kts 17°
2026-05-01 08:38 5.03529 102.87437 6187 ft 283 kts 16°
2026-05-01 08:38 5.05393 102.87928 5906 ft 279 kts 16°
2026-05-01 08:38 5.07262 102.88425 5617 ft 277 kts 17°
2026-05-01 08:38 5.09128 102.88884 5352 ft 275 kts 13°
2026-05-01 08:39 5.11001 102.89236 5115 ft 273 kts 12°
2026-05-01 08:39 5.12888 102.89582 4850 ft 269 kts 12°
2026-05-01 08:39 5.14714 102.89925 4653 ft 266 kts 12°
2026-05-01 08:39 5.16519 102.90271 4409 ft 264 kts 13°
2026-05-01 08:40 5.19566 102.91918 3964 ft 251 kts 50°
2026-05-01 08:40 5.20759 102.93189 3738 ft 250 kts 46°
2026-05-01 08:40 5.21998 102.94395 3529 ft 247 kts 46°
2026-05-01 08:41 5.23268 102.95588 3302 ft 246 kts 43°
2026-05-01 08:41 5.24501 102.96723 3089 ft 241 kts 44°
2026-05-01 08:41 5.25675 102.97867 2964 ft 221 kts 46°
2026-05-01 08:41 5.26719 102.98900 2715 ft 207 kts 46°
2026-05-01 08:42 5.27713 102.99885 2479 ft 196 kts 46°
2026-05-01 08:42 5.28639 103.00802 2231 ft 194 kts 46°
2026-05-01 08:42 5.29579 103.01734 1987 ft 185 kts 46°
2026-05-01 08:42 5.30469 103.02611 1755 ft 174 kts 45°
2026-05-01 08:43 5.31305 103.03441 1553 ft 164 kts 46°
2026-05-01 08:43 5.31844 103.03973 1410 ft 157 kts 46°
2026-05-01 08:43 5.32845 103.04958 1156 ft 148 kts 48°
2026-05-01 08:43 5.33332 103.05447 1024 ft 147 kts 45°
2026-05-01 08:44 5.34063 103.06166 850 ft 148 kts 43°
2026-05-01 08:44 5.34788 103.06884 679 ft 148 kts 45°
2026-05-01 08:44 5.35522 103.07618 529 ft 149 kts 44°
2026-05-01 08:44 5.36284 103.08379 264 ft 162 kts 44°
2026-05-01 08:45 5.37072 103.09157 53 ft 151 kts 44°
2026-05-01 08:45 5.37758 103.09833 28 ft 116 kts 44°
2026-05-01 08:45 5.38172 103.10241 28 ft 36 kts 44°
2026-05-01 08:45 5.38188 103.10336 27 ft 15 kts 123°
2026-05-01 08:46 5.38141 103.10383 28 ft 2 kts 137°
2026-05-01 08:46 5.38114 103.10403 25 ft 7 kts 162°
2026-05-01 08:46 5.38053 103.10388 24 ft 11 kts 196°
2026-05-01 08:46 5.37986 103.10410 26 ft 10 kts 133°
2026-05-01 08:47 5.37961 103.10435 24 ft 3 kts 136°
2026-05-01 08:47 5.37952 103.10444 26 ft 0 kts 135°